Date String (YYYY-MM-DD hh:mm:ss) UTC,Instrument flags,Ambient pressure (hPa),Sample flow (lpm),Bypass flow (lpm),Sample temperature (°C),Ambient temperature (°C),ASC tube jacket temperature (°C),LED temperature (°C),Box temperature (°C),Sample RH (%),Span deviation,Mass concentration (μg/m³),Mass concentration (μg/m³),Mass concentration (μg/m³)
DateTimeUTC,F1_M11,P_M11,Q1_M11,Q2_M11,T1_M11,T2_M11,T3_M11,T4_M11,T5_M11,U1_M11,ZSPAN_M11,X2_M11,X0_M11,X1_M11
2022-02-18 16:00:00,,0827.9,4.99,0.00,23.0,22.3,00.0,31.9,24.8,08.6,0000.0,0005.80,0028.60,0003.37
2022-02-18 16:01:00,,0827.9,5.00,0.00,23.0,22.2,00.0,31.9,24.8,08.4,0000.0,0005.49,0022.89,0003.37
2022-02-18 16:02:00,,0828.0,5.00,0.00,23.0,22.3,00.0,31.9,24.8,08.3,0000.0,0005.11,0017.79,0003.39
2022-02-18 16:03:00,,0827.9,4.99,0.00,23.0,22.3,00.0,31.9,24.8,08.2,0000.0,0004.60,0014.15,0003.41
2022-02-18 16:04:00,,0828.1,5.02,0.00,23.0,22.3,00.0,31.9,24.8,08.3,0000.0,0004.45,0012.21,0003.47
2022-02-18 16:05:00,,0828.1,4.99,0.00,23.0,22.3,00.0,31.9,24.8,08.3,0000.0,0004.35,0011.23,0003.55
2022-02-18 16:06:00,,0828.0,4.99,0.00,23.0,22.2,00.0,31.9,24.8,08.4,0000.0,0004.37,0010.25,0003.64
2022-02-18 16:07:00,,0828.0,5.01,0.00,23.0,22.2,00.0,31.9,24.8,08.5,0000.0,0004.37,0009.97,0003.70
2022-02-18 16:08:00,,0828.0,5.00,0.00,23.0,22.2,00.0,31.9,24.8,08.7,0000.0,0004.32,0009.71,0003.75
2022-02-18 16:09:00,,0828.2,4.99,0.00,23.0,22.2,00.0,31.9,24.8,08.5,0000.0,0004.32,0009.12,0003.79
2022-02-18 16:10:00,,0828.0,5.00,0.00,23.0,22.2,00.0,31.9,24.8,08.4,0000.0,0004.36,0008.71,0003.84
2022-02-18 16:11:00,,0828.2,5.00,0.00,23.0,22.3,00.0,31.9,24.8,08.5,0000.0,0004.38,0008.81,0003.89
2022-02-18 16:12:00,,0828.1,4.99,0.00,23.0,22.3,00.0,31.9,24.9,08.5,0000.0,0004.37,0008.60,0003.94
2022-02-18 16:13:00,,0828.0,4.99,0.00,23.0,22.3,00.0,31.9,24.8,08.5,0000.0,0004.36,0008.50,0003.97
2022-02-18 16:14:00,,0828.0,5.02,0.00,23.0,22.3,00.0,31.9,24.9,08.6,0000.0,0004.44,0008.63,0004.01
2022-02-18 16:15:00,,0828.0,5.00,0.00,23.0,22.3,00.0,32.0,24.9,08.6,0000.0,0004.40,0008.41,0004.02
2022-02-18 16:16:00,,0828.1,4.99,0.00,23.0,22.3,00.0,32.0,24.9,08.4,0000.0,0004.40,0007.96,0004.02
2022-02-18 16:17:00,,0828.0,5.00,0.00,23.0,22.3,00.0,32.0,24.9,08.4,0000.0,0004.40,0008.44,0004.02
2022-02-18 16:18:00,,0828.2,5.00,0.00,23.0,22.3,00.0,32.0,24.9,08.5,0000.0,0004.39,0008.93,0004.02
2022-02-18 16:19:00,,0828.1,4.99,0.00,23.1,22.3,00.0,32.0,24.9,08.5,0000.0,0004.39,0008.78,0004.03
2022-02-18 16:20:00,,0828.1,5.02,0.00,23.1,22.3,00.0,32.0,24.9,08.4,0000.0,0004.35,0008.65,0004.01
2022-02-18 16:21:00,,0828.1,4.99,0.00,23.1,22.3,00.0,32.0,24.9,08.5,0000.0,0004.34,0008.43,0004.01
2022-02-18 16:22:00,,0828.1,5.00,0.00,23.1,22.3,00.0,32.0,24.9,08.6,0000.0,0004.33,0008.10,0004.01
2022-02-18 16:23:00,,0828.1,5.00,0.00,23.1,22.3,00.0,32.0,24.9,08.6,0000.0,0004.29,0008.04,0003.99
2022-02-18 16:24:00,,0828.1,5.01,0.00,23.1,22.3,00.0,32.0,24.9,08.6,0000.0,0004.28,0008.14,0003.96
2022-02-18 16:25:00,,0828.1,5.00,0.00,23.1,22.3,00.0,32.0,24.9,08.7,0000.0,0004.21,0008.00,0003.94
2022-02-18 16:26:00,,0828.1,4.99,0.00,23.1,22.3,00.0,32.0,24.9,08.8,0000.0,0004.20,0007.99,0003.92
2022-02-18 16:27:00,,0828.1,4.99,0.00,23.1,22.4,00.0,32.0,24.9,08.7,0000.0,0004.20,0008.00,0003.94
2022-02-18 16:28:00,,0828.1,5.01,0.00,23.1,22.4,00.0,32.0,24.9,08.8,0000.0,0004.19,0007.37,0003.94
2022-02-18 16:29:00,,0828.1,5.00,0.00,23.1,22.4,00.0,32.0,25.0,08.6,0000.0,0004.20,0006.62,0003.95
2022-02-18 16:30:00,,0828.1,4.99,0.00,23.2,22.4,00.0,32.0,25.0,08.7,0000.0,0004.22,0006.65,0003.96
2022-02-18 16:31:00,,0828.2,5.01,0.00,23.2,22.5,00.0,32.1,25.0,08.8,0000.0,0004.25,0007.22,0003.98
2022-02-18 16:32:00,,0828.1,4.98,0.00,23.2,22.5,00.0,32.1,25.0,08.8,0000.0,0004.28,0007.92,0004.00
2022-02-18 16:33:00,,0828.4,5.01,0.00,23.2,22.5,00.0,32.1,25.0,08.9,0000.0,0004.29,0007.92,0004.02
2022-02-18 16:34:00,,0828.2,4.99,0.00,23.2,22.5,00.0,32.1,25.0,08.9,0000.0,0004.33,0008.34,0004.03
2022-02-18 16:35:00,,0828.3,5.01,0.00,23.2,22.5,00.0,32.1,25.0,08.9,0000.0,0004.34,0008.90,0004.06
2022-02-18 16:36:00,,0828.3,5.00,0.00,23.2,22.5,00.0,32.1,25.0,09.1,0000.0,0004.37,0009.50,0004.08
2022-02-18 16:37:00,,0828.3,5.00,0.00,23.2,22.5,00.0,32.1,25.1,08.8,0000.0,0004.37,0009.62,0004.10
2022-02-18 16:38:00,,0828.3,4.99,0.00,23.3,22.5,00.0,32.1,25.1,08.8,0000.0,0004.39,0010.28,0004.12
2022-02-18 16:39:00,,0828.4,5.01,0.00,23.3,22.5,00.0,32.1,25.1,08.5,0000.0,0004.44,0010.50,0004.16
2022-02-18 16:40:00,,0828.5,5.00,0.00,23.3,22.6,00.0,32.2,25.1,08.6,0000.0,0004.45,0010.57,0004.20
2022-02-18 16:41:00,,0828.4,4.99,0.00,23.3,22.6,00.0,32.2,25.1,08.5,0000.0,0004.47,0011.22,0004.24
2022-02-18 16:42:00,,0828.4,5.00,0.00,23.3,22.6,00.0,32.2,25.1,08.5,0000.0,0004.53,0011.11,0004.28
2022-02-18 16:43:00,,0828.4,4.99,0.00,23.3,22.6,00.0,32.2,25.1,08.6,0000.0,0004.56,0010.60,0004.32
2022-02-18 16:44:00,,0828.4,5.01,0.00,23.3,22.6,00.0,32.2,25.1,08.4,0000.0,0004.62,0010.78,0004.38
2022-02-18 16:45:00,,0828.4,4.99,0.00,23.3,22.6,00.0,32.2,25.1,08.3,0000.0,0004.67,0010.54,0004.45
2022-02-18 16:46:00,,0828.4,5.00,0.00,23.3,22.6,00.0,32.2,25.1,08.6,0000.0,0004.78,0009.95,0004.54
2022-02-18 16:47:00,,0828.4,4.98,0.00,23.3,22.6,00.0,32.2,25.1,08.6,0000.0,0004.87,0009.56,0004.63
2022-02-18 16:48:00,,0828.3,5.02,0.00,23.3,22.6,00.0,32.2,25.1,08.6,0000.0,0004.97,0009.71,0004.71
2022-02-18 16:49:00,,0828.4,4.99,0.00,23.3,22.6,00.0,32.2,25.1,08.6,0000.0,0005.04,0009.32,0004.78
2022-02-18 16:50:00,,0828.4,5.01,0.00,23.3,22.6,00.0,32.3,25.1,08.5,0000.0,0005.08,0009.23,0004.83
2022-02-18 16:51:00,,0828.4,4.99,0.00,23.3,22.6,00.0,32.3,25.1,08.5,0000.0,0005.15,0009.25,0004.89
2022-02-18 16:52:00,,0828.4,5.00,0.00,23.3,22.6,00.0,32.3,25.1,08.5,0000.0,0005.21,0008.61,0004.95
2022-02-18 16:53:00,,0828.4,5.01,0.00,23.3,22.5,00.0,32.3,25.1,08.5,0000.0,0005.23,0008.44,0004.99
2022-02-18 16:54:00,,0828.3,5.00,0.00,23.3,22.6,00.0,32.3,25.1,08.8,0000.0,0005.27,0008.47,0005.04
2022-02-18 16:55:00,,0828.3,4.99,0.00,23.3,22.6,00.0,32.3,25.1,08.5,0000.0,0005.27,0008.36,0005.06
2022-02-18 16:56:00,,0828.3,5.01,0.00,23.3,22.6,00.0,32.3,25.1,08.1,0000.0,0005.31,0008.34,0005.07
2022-02-18 16:57:00,,0828.3,4.98,0.00,23.4,22.6,00.0,32.3,25.1,08.0,0000.0,0005.28,0008.28,0005.06
2022-02-18 16:58:00,,0828.4,5.00,0.00,23.4,22.6,00.0,32.3,25.2,08.0,0000.0,0005.24,0008.20,0005.03
2022-02-18 16:59:00,,0828.3,5.00,0.00,23.4,22.6,00.0,32.3,25.2,08.2,0000.0,0005.23,0008.12,0005.02
